CAPE
1514 1489 1428 1371 1370 1310 1375 1345 1428 1498 1374 1224 1095 768 643 585 626 641 505 305 186 114 463 787 589 257 222 251 117 117 40 21 3 3 0 0 0 0 0 0 0 0 0
1638 1579 1507 1521 1509 1507 1568 1551 1698 1715 1686 1453 1199 979 771 700 903 735 710 343 227 205 832 1105 619 461 123 77 170 167 79 0 0 0 0 0 1 0 0 0 0 0 0
1756 1857 1775 1771 1729 1692 1640 1613 1642 1778 1722 1518 1371 1108 1053 1038 954 616 369 428 342 354 690 1022 444 468 50 0 49 121 141 55 1 3 9 3 0 0 0 0 0 0 0
1725 1830 1938 1958 1962 1941 1918 1908 1905 1821 1713 1592 1511 1310 1116 1087 968 733 748 778 278 658 1074 1078 428 296 85 8 34 102 159 90 18 11 9 2 0 0 0 0 0 0 0
1950 2005 2004 2013 2015 2024 2005 1978 1976 1940 1760 1413 1432 1404 1229 1256 1131 865 950 833 764 643 921 909 572 457 317 157 0 34 71 61 3 0 20 1 0 0 0 0 0 0 0
2129 2114 2127 2160 2205 2199 2160 2141 2249 2165 1495 1507 1462 1418 1306 1235 1198 981 832 716 776 584 642 743 630 407 288 19 0 2 15 0 16 22 24 0 0 0 0 0 0 0 0
2129 2199 2231 2236 2234 2291 2289 2275 2338 2214 1954 1532 1453 1341 1169 1077 1029 967 598 582 568 407 497 476 438 404 120 0 0 0 0 0 0 0 0 0 0 0 0 0 0 0 0
2151 2134 2256 2326 2287 2298 2340 2327 2383 2065 2053 1786 1338 1149 951 1019 770 781 585 479 483 438 351 370 303 248 62 0 0 0 0 0 0 0 0 0 0 0 0 0 0 0 0
2044 2059 2058 2209 2293 2301 2357 2370 2244 1910 1938 1600 1351 1020 854 714 534 419 424 317 198 204 306 356 413 161 79 0 0 0 0 0 0 0 0 0 0 0 0 0 0 0 0
2117 2033 2009 2046 2099 2141 2139 2277 2039 1892 1735 1490 1306 1015 809 640 393 256 339 275 112 71 110 329 350 222 33 0 0 0 0 0 0 0 0 0 0 0 0 0 0 0 0
2711 2682 2575 2416 2251 2161 2185 2115 1884 1691 1494 1449 1100 923 719 535 418 349 268 232 151 134 268 394 276 104 0 0 0 0 0 0 0 0 0 0 0 0 0 0 0 0 0
3140 2885 2870 2799 2631 2453 2284 2135 1682 1451 1414 1327 1043 866 507 490 453 399 320 297 254 372 242 390 268 60 5 0 0 0 0 0 0 0 0 0 0 0 0 0 0 0 0
2860 2941 2957 2671 2386 2260 2315 1989 1675 1368 1330 1244 942 623 552 514 526 444 339 368 368 405 287 290 149 12 4 0 0 0 0 0 0 0 0 0 0 0 0 0 0 0 0
1447 2129 2537 2614 2096 1936 1704 879 790 886 1019 1039 793 717 787 715 542 485 446 259 363 324 267 203 42 10 3 0 0 0 0 0 0 0 0 0 0 0 0 0 0 0 0
341 676 1065 1992 2028 1565 1018 666 432 292 517 671 723 753 729 818 644 405 445 362 311 212 151 103 52 13 18 3 0 0 0 0 0 0 0 0 0 0 0 0 0 0 0
245 202 184 449 731 854 662 608 206 84 22 16 441 787 922 840 721 563 460 424 396 215 218 125 59 11 3 11 18 0 0 0 0 0 0 0 0 0 0 0 0 0 0
0 157 304 561 349 90 225 354 211 22 8 0 46 566 922 873 790 650 597 617 552 333 306 158 85 44 25 0 4 0 0 0 0 0 0 0 0 0 0 0 0 0 0
0 0 44 353 394 242 269 157 29 0 0 2 14 13 495 883 843 834 857 830 720 425 355 339 161 114 112 81 36 16 7 0 0 0 0 0 0 0 0 0 0 0 0
0 0 0 25 278 261 186 405 164 13 36 9 6 13 30 222 401 427 696 664 655 436 399 414 184 205 237 170 51 57 78 43 0 0 0 0 0 0 0 0 0 0 0
0 0 0 0 76 73 28 175 562 375 3 11 6 67 4 0 18 53 10 85 387 407 451 463 328 255 273 284 168 218 302 194 66 1 0 0 0 0 0 0 0 0 0
4 0 0 0 23 43 143 86 127 321 339 71 15 0 0 6 5 0 0 8 114 246 269 261 351 362 298 323 279 221 171 194 170 64 9 0 0 0 0 0 0 0 0
1 8 0 0 2 14 40 100 171 105 122 130 211 120 34 0 5 10 0 17 54 68 194 335 328 327 350 330 345 245 231 205 198 370 345 326 284 231 157 34 0 0 0
7 4 3 0 0 3 0 0 34 38 58 49 20 16 10 64 86 89 83 97 77 8 22 46 225 338 407 444 292 225 191 276 249 255 347 433 477 450 390 357 290 147 0
41 33 11 0 0 1 3 0 0 0 2 9 14 6 0 5 39 53 92 98 84 31 12 25 17 11 33 14 5 3 41 131 232 194 185 209 264 290 343 330 336 304 203
38 57 47 24 1 0 0 2 5 8 0 12 9 1 0 0 0 0 15 52 31 43 99 151 150 104 132 158 71 153 213 196 269 290 274 219 199 221 310 337 309 365 409
6 14 14 10 3 4 2 1 0 9 18 18 24 17 14 14 0 0 5 9 9 5 5 0 0 94 138 169 248 226 274 278 298 369 342 336 424 367 434 545 556 538 566
CIN
-274 -202 -175 -161 -181 -166 -127 -129 -98 -56 -58 -67 -63 -82 -82 -79 -44 -35 -40 -80 -101 -159 -68 -6 -17 -14 -50 -21 -33 -33 -154 -77 -3 -2 0 0 0 0 0 0 0 0 0
-307 -247 -236 -202 -144 -164 -146 -131 -84 -59 -44 -62 -73 -80 -83 -79 -21 -42 -30 -65 -60 -144 -51 -5 -17 -10 -51 -55 -24 -21 -94 0 0 0 0 0 -2 0 0 0 0 0 0
-323 -290 -260 -249 -209 -145 -123 -103 -101 -72 -60 -67 -64 -90 -86 -47 -20 -27 -84 -40 -84 -118 -61 -8 -27 -11 -110 0 -100 -49 -54 -149 -1 -3 -5 -1 0 0 0 0 0 0 0
-356 -311 -278 -264 -232 -168 -127 -106 -88 -78 -76 -74 -62 -62 -82 -57 -41 -34 -47 -28 -69 -57 -13 -12 -23 -15 -63 -137 -124 -68 -58 -86 -99 -9 -8 -1 0 0 0 0 0 0 0
-334 -300 -294 -288 -245 -167 -128 -106 -80 -51 -61 -51 -56 -55 -64 -34 -42 -59 -28 -24 -24 -34 -17 -15 -16 -11 -13 -21 0 -161 -124 -109 -21 0 -178 -3 0 0 0 0 0 0 0
-320 -306 -278 -255 -238 -190 -139 -112 -51 -37 -48 -46 -50 -55 -50 -55 -43 -32 -32 -17 -19 -28 -21 -24 -25 -22 -24 -205 0 -296 -301 0 -253 -229 -227 0 0 0 0 0 0 0 0
-286 -295 -251 -212 -226 -190 -148 -104 -62 -45 -57 -44 -73 -67 -51 -54 -45 -32 -48 -32 -22 -44 -33 -30 -30 -21 -32 0 0 0 0 0 0 0 0 0 0 0 0 0 0 0 0
-207 -195 -216 -191 -170 -180 -143 -104 -47 -60 -38 -45 -79 -104 -64 -48 -51 -32 -27 -37 -30 -32 -41 -41 -29 -25 -57 0 0 0 0 0 0 0 0 0 0 0 0 0 0 0 0
-139 -101 -83 -191 -139 -122 -107 -94 -40 -51 -42 -44 -79 -66 -53 -38 -39 -51 -32 -22 -57 -73 -42 -37 -7 -15 -43 0 0 0 0 0 0 0 0 0 0 0 0 0 0 0 0
-27 -41 -39 -6 -151 -114 -96 -63 -50 -60 -35 -64 -63 -64 -47 -40 -24 -36 -32 -23 -71 -37 -81 -30 -21 -18 -50 0 0 0 0 0 0 0 0 0 0 0 0 0 0 0 0
-37 -69 -45 -25 -10 -63 -65 -30 -24 -45 -30 -36 -55 -44 -48 -68 -64 -49 -45 -36 -76 -51 -34 -36 -34 -46 0 0 0 0 0 0 0 0 0 0 0 0 0 0 0 0 0
-83 -86 -62 -36 -24 -19 -15 -21 -40 -55 -45 -56 -84 -62 -96 -93 -68 -40 -35 -26 -42 -30 -50 -40 -37 -60 -48 0 0 0 0 0 0 0 0 0 0 0 0 0 0 0 0
-29 -44 -38 -36 -31 -20 -9 -8 -41 -47 -54 -60 -84 -125 -141 -145 -110 -72 -32 -18 -25 -16 -29 -26 -37 -95 -31 0 0 0 0 0 0 0 0 0 0 0 0 0 0 0 0
-67 -30 -19 -13 -30 -20 -5 -3 -12 -14 -43 -33 -38 -60 -65 -78 -103 -112 -80 -68 -35 -36 -21 -18 -54 -42 -33 0 0 0 0 0 0 0 0 0 0 0 0 0 0 0 0
-355 -62 -66 -12 -3 -36 -86 -89 -15 -15 -8 -9 -14 -22 -28 -44 -84 -91 -94 -93 -68 -73 -76 -43 -54 -37 -20 -76 0 0 0 0 0 0 0 0 0 0 0 0 0 0 0
-295 -373 -390 -86 -44 -48 -64 -86 -224 -238 -218 -195 -86 -37 -45 -34 -60 -88 -104 -74 -73 -52 -44 -48 -54 -24 -40 -28 -59 0 0 0 0 0 0 0 0 0 0 0 0 0 0
-18 -295 -197 -65 -152 -276 -76 -45 -89 -320 -522 0 -336 -66 -80 -92 -92 -108 -116 -70 -52 -57 -60 -67 -96 -103 -47 0 -22 0 0 0 0 0 0 0 0 0 0 0 0 0 0
0 0 -232 -88 -73 -116 -174 -312 -404 0 0 -124 -403 -229 -214 -115 -128 -97 -67 -36 -52 -107 -117 -69 -78 -89 -75 -53 -21 -75 -70 0 0 0 0 0 0 0 0 0 0 0 0
0 0 0 -298 -89 -115 -168 -80 -142 -206 -330 -541 -298 -200 -247 -187 -145 -112 -45 -79 -82 -120 -139 -101 -128 -110 -73 -72 -70 -31 -42 -53 0 0 0 0 0 0 0 0 0 0 0
0 0 0 0 -211 -178 -244 -170 -41 -52 -69 -421 -58 -102 -118 -10 -350 -202 -129 -149 -96 -158 -150 -130 -104 -88 -68 -76 -81 -53 -29 -32 -41 -12 0 0 0 0 0 0 0 0 0
-1 0 0 0 -91 -87 -85 -128 -147 -28 -35 -206 -263 0 0 -137 -75 0 0 -89 -89 -109 -141 -131 -89 -87 -79 -50 -50 -70 -69 -76 -36 -47 -168 -5 0 0 0 0 0 0 0
0 -2 0 0 -4 -93 -54 -68 -28 -91 -53 -84 -82 -76 -169 -7 -81 -56 0 -97 -98 -135 -101 -84 -76 -48 -38 -38 -46 -55 -62 -72 -88 -57 -61 -75 -57 -52 -100 -43 0 0 0
-11 -3 0 0 0 -44 0 0 -66 -54 -73 -88 -179 -223 -219 -60 -57 -83 -67 -79 -95 -38 -36 -76 -103 -89 -75 -49 -62 -73 -78 -82 -115 -105 -99 -54 -58 -61 -51 -81 -113 -157 -151
-6 -12 -7 -2 0 -7 0 0 0 0 -14 -127 -132 -58 0 -16 -41 -48 -37 -34 -48 -66 -87 -108 -94 -217 -183 -74 -8 -110 -110 -96 -82 -83 -74 -80 -102 -96 -86 -100 -115 -127 -148
-2 -1 -1 -1 0 0 0 -2 -128 -108 -11 -119 -144 -18 0 0 0 0 -47 -78 -33 -44 -102 -102 -81 -71 -39 -32 -132 -83 -50 -53 -47 -63 -56 -43 -57 -86 -84 -85 -99 -92 -75
-7 -2 0 -7 -8 -2 -8 0 0 -122 -118 -131 -136 -136 -168 -194 0 0 -151 -232 -208 -18 -19 0 0 -103 -68 -42 -15 -42 -46 -30 -6 -12 -16 -12 -4 -31 -27 -36 -45 -53 -48
Wind_Speed
22 24 23 20 18 16 17 19 18 18 19 18 18 16 16 16 15 14 13 15 16 18 18 21 17 17 16 12 10 12 nan nan nan nan nan nan nan nan nan nan nan nan nan
23 23 23 20 20 20 21 21 20 16 17 19 20 21 19 17 17 16 15 16 17 17 19 24 20 20 16 nan 12 10 nan nan nan nan nan nan nan nan nan nan nan nan nan
29 27 23 21 22 23 20 21 22 21 18 21 22 22 23 22 20 18 18 17 19 20 15 18 21 18 nan nan nan 13 10 nan nan nan nan nan nan nan nan nan nan nan nan
31 30 28 26 24 24 24 25 23 23 24 22 23 24 25 26 23 21 20 18 17 18 15 15 23 20 nan nan nan 14 12 nan nan nan nan nan nan nan nan nan nan nan nan
28 28 30 29 24 20 22 25 24 25 24 21 24 23 26 26 25 23 21 20 18 15 21 15 26 29 15 20 nan nan nan nan nan nan nan nan nan nan nan nan nan nan nan
25 25 26 27 25 23 23 24 23 24 23 24 23 22 22 24 24 22 22 21 22 23 25 20 25 26 31 nan nan nan nan nan nan nan nan nan nan nan nan nan nan nan nan
24 22 22 23 24 22 23 23 22 28 29 24 25 24 21 19 20 21 20 22 24 30 31 27 23 25 33 nan nan nan nan nan nan nan nan nan nan nan nan nan nan nan nan
22 21 19 19 19 20 21 19 19 25 28 23 20 16 15 18 19 17 19 22 22 20 21 23 21 25 nan nan nan nan nan nan nan nan nan nan nan nan nan nan nan nan nan
22 20 20 19 20 23 22 21 19 22 24 23 21 20 14 14 18 17 20 23 22 24 26 25 23 23 nan nan nan nan nan nan nan nan nan nan nan nan nan nan nan nan nan
26 20 24 24 25 23 23 23 24 24 22 21 20 17 17 12 15 15 22 23 19 nan 23 28 21 24 nan nan nan nan nan nan nan nan nan nan nan nan nan nan nan nan nan
28 26 26 28 26 22 26 29 24 25 22 21 19 18 13 13 14 15 16 17 20 24 24 25 26 29 nan nan nan nan nan nan nan nan nan nan nan nan nan nan nan nan nan
26 29 29 29 29 31 29 25 32 23 27 22 21 21 17 14 15 16 15 17 22 19 22 26 27 nan nan nan nan nan nan nan nan nan nan nan nan nan nan nan nan nan nan
30 27 28 28 33 33 33 29 28 26 28 26 23 23 23 21 20 19 17 17 15 22 30 22 27 nan nan nan nan nan nan nan nan nan nan nan nan nan nan nan nan nan nan
33 31 29 30 34 36 39 41 38 34 31 32 26 23 22 23 25 28 27 24 23 22 23 32 nan nan nan nan nan nan nan nan nan nan nan nan nan nan nan nan nan nan nan
33 36 40 44 47 50 50 55 46 47 43 37 32 29 25 23 27 28 30 32 31 28 36 36 nan nan nan nan nan nan nan nan nan nan nan nan nan nan nan nan nan nan nan
38 37 37 41 45 51 52 52 69 nan nan nan 17 28 27 20 30 34 33 32 37 42 37 36 nan nan nan nan nan nan nan nan nan nan nan nan nan nan nan nan nan nan nan
nan 42 42 41 45 nan 49 50 50 nan nan nan nan 15 23 22 24 27 32 34 42 45 31 34 nan nan nan nan nan nan nan nan nan nan nan nan nan nan nan nan nan nan nan
nan nan nan 46 43 45 42 43 nan nan nan nan nan nan 12 15 30 32 46 52 39 33 29 28 29 34 36 nan nan nan nan nan nan nan nan nan nan nan nan nan nan nan nan
nan nan nan nan 47 46 44 40 43 nan nan nan nan nan nan 32 30 44 51 42 42 32 29 24 25 29 35 39 nan nan nan nan nan nan nan nan nan nan nan nan nan nan nan
nan nan nan nan nan nan nan 41 36 38 nan nan nan nan nan nan nan nan nan nan 35 35 31 24 24 27 31 36 36 40 46 45 nan nan nan nan nan nan nan nan nan nan nan
nan nan nan nan nan nan 48 nan 40 37 37 nan nan nan nan nan nan nan nan nan 23 36 31 27 24 28 31 36 41 40 40 46 51 nan nan nan nan nan nan nan nan nan nan
nan nan nan nan nan nan nan 48 44 38 32 32 28 26 nan nan nan nan nan nan nan nan 24 31 27 27 28 34 35 40 45 45 50 50 48 46 47 44 44 nan nan nan nan
nan nan nan nan nan nan nan nan nan nan nan nan nan nan nan nan nan nan nan nan nan nan nan nan 26 27 31 30 37 34 35 38 33 37 43 43 46 45 46 46 44 42 nan
nan nan nan nan nan nan nan nan nan nan nan nan nan nan nan nan nan nan nan nan nan nan nan nan nan nan nan nan nan nan nan 34 34 34 36 45 44 44 46 47 46 42 42
nan nan nan nan nan nan nan nan nan nan nan nan nan nan nan nan nan nan nan nan nan nan nan 29 28 18 15 22 nan 27 34 41 41 41 42 39 39 41 44 45 44 45 43
nan nan nan nan nan nan nan nan nan nan nan nan nan nan nan nan nan nan nan nan nan nan nan nan nan nan 27 26 27 30 27 33 45 45 43 44 42 42 44 41 39 43 44
Wind_Direction
343 340 338 344 346 336 327 323 315 302 305 305 301 293 291 291 286 274 258 254 258 260 257 246 246 253 247 253 258 289 nan nan nan nan nan nan nan nan nan nan nan nan nan
341 336 340 342 335 331 326 326 318 300 295 300 297 294 291 288 285 289 279 269 264 265 272 243 243 241 242 nan 248 278 nan nan nan nan nan nan nan nan nan nan nan nan nan
349 343 335 335 337 338 333 332 326 322 308 294 291 292 292 291 289 284 278 274 274 274 293 251 232 240 nan nan nan 259 251 nan nan nan nan nan nan nan nan nan nan nan nan
345 345 344 343 342 336 337 334 333 333 325 312 300 297 288 286 290 289 275 264 267 267 274 252 245 239 nan nan nan 251 246 nan nan nan nan nan nan nan nan nan nan nan nan
333 338 346 345 344 335 333 328 330 328 320 317 304 293 284 282 278 283 279 264 256 263 258 258 255 238 258 234 nan nan nan nan nan nan nan nan nan nan nan nan nan nan nan
320 334 334 340 342 338 342 328 319 322 314 316 313 305 298 278 279 288 282 264 254 262 252 243 252 259 238 nan nan nan nan nan nan nan nan nan nan nan nan nan nan nan nan
323 312 324 327 339 330 333 319 321 327 322 320 319 320 309 287 274 282 289 267 259 259 265 242 246 264 232 nan nan nan nan nan nan nan nan nan nan nan nan nan nan nan nan
320 296 309 320 327 323 320 325 317 312 321 316 314 308 293 287 288 285 283 268 262 261 239 244 245 263 nan nan nan nan nan nan nan nan nan nan nan nan nan nan nan nan nan
304 288 288 298 306 314 322 322 311 305 312 309 299 305 300 280 298 292 272 263 265 250 237 241 251 243 nan nan nan nan nan nan nan nan nan nan nan nan nan nan nan nan nan
297 292 284 288 294 306 318 314 290 291 308 302 300 302 299 287 286 288 281 269 264 nan 252 233 261 241 nan nan nan nan nan nan nan nan nan nan nan nan nan nan nan nan nan
277 283 287 288 291 293 292 287 283 290 297 302 300 286 277 275 265 283 285 266 253 270 236 225 229 242 nan nan nan nan nan nan nan nan nan nan nan nan nan nan nan nan nan
271 283 289 289 283 285 287 286 292 292 288 292 291 282 266 261 261 260 271 270 271 238 228 233 224 nan nan nan nan nan nan nan nan nan nan nan nan nan nan nan nan nan nan
262 276 281 290 291 289 291 285 276 279 279 276 283 284 278 258 250 262 265 262 265 253 232 238 240 nan nan nan nan nan nan nan nan nan nan nan nan nan nan nan nan nan nan
266 266 279 288 286 277 269 257 252 244 246 246 250 258 266 266 263 259 261 252 231 221 229 225 nan nan nan nan nan nan nan nan nan nan nan nan nan nan nan nan nan nan nan
269 272 274 279 281 279 277 275 257 252 253 255 239 243 253 269 271 280 279 272 260 243 237 231 nan nan nan nan nan nan nan nan nan nan nan nan nan nan nan nan nan nan nan
279 278 278 283 285 290 289 286 291 nan nan nan 251 262 251 259 298 295 295 287 280 277 249 244 nan nan nan nan nan nan nan nan nan nan nan nan nan nan nan nan nan nan nan
nan 283 281 282 283 nan 291 296 300 nan nan nan nan 282 265 274 284 285 297 296 290 288 262 251 nan nan nan nan nan nan nan nan nan nan nan nan nan nan nan nan nan nan nan
nan nan nan 286 286 286 289 293 nan nan nan nan nan nan 260 286 285 281 296 271 264 277 277 261 252 239 229 nan nan nan nan nan nan nan nan nan nan nan nan nan nan nan nan
nan nan nan nan 287 290 289 294 297 nan nan nan nan nan nan 268 274 284 319 283 270 271 273 262 257 253 242 239 nan nan nan nan nan nan nan nan nan nan nan nan nan nan nan
nan nan nan nan nan nan nan 287 286 289 nan nan nan nan nan nan nan nan nan nan 265 267 267 264 252 246 246 252 251 248 240 236 nan nan nan nan nan nan nan nan nan nan nan
nan nan nan nan nan nan 278 nan 279 280 282 nan nan nan nan nan nan nan nan nan 270 247 256 250 248 248 249 250 249 246 242 242 245 nan nan nan nan nan nan nan nan nan nan
nan nan nan nan nan nan nan 282 281 276 271 273 271 266 nan nan nan nan nan nan nan nan 257 246 252 252 258 256 252 251 246 245 246 243 244 245 246 245 246 nan nan nan nan
nan nan nan nan nan nan nan nan nan nan nan nan nan nan nan nan nan nan nan nan nan nan nan nan 261 258 254 260 255 256 258 245 242 250 248 247 251 252 255 253 255 258 nan
nan nan nan nan nan nan nan nan nan nan nan nan nan nan nan nan nan nan nan nan nan nan nan nan nan nan nan nan nan nan nan 237 236 236 245 250 254 259 259 259 261 267 267
nan nan nan nan nan nan nan nan nan nan nan nan nan nan nan nan nan nan nan nan nan nan nan 240 247 237 252 273 nan 274 250 246 240 238 242 243 247 254 258 260 265 267 270
nan nan nan nan nan nan nan nan nan nan nan nan nan nan nan nan nan nan nan nan nan nan nan nan nan nan 247 263 261 257 255 255 249 241 240 246 246 248 253 259 266 264 266